Total_Precipitation_Accumulation
0.00 0.00 0.01 0.05 0.13 0.11 0.10 0.10 0.13 0.09 0.07 0.11 0.14 0.23 0.28 0.34 0.22 0.22 0.38 0.27 0.27 0.30 0.24 0.09 0.07 0.08 0.03 0.04 0.03 0.04 0.03 0.01 0.02 0.02 0.01 0.00 0.00 0.00 0.00 0.00 0.00 0.00 0.01
0.00 0.00 0.00 0.00 0.00 0.10 0.19 0.18 0.09 0.22 0.20 0.08 0.12 0.32 0.45 0.42 0.33 0.40 0.31 0.28 0.38 0.47 0.44 0.25 0.21 0.15 0.08 0.05 0.03 0.05 0.12 0.06 0.13 0.14 0.08 0.03 0.00 0.00 0.00 0.00 0.00 0.00 0.01
0.00 0.00 0.00 0.00 0.00 0.01 0.03 0.07 0.12 0.24 0.31 0.32 0.21 0.43 0.46 0.45 0.40 0.25 0.17 0.19 0.32 0.68 0.58 0.31 0.25 0.23 0.14 0.10 0.10 0.12 0.22 0.23 0.23 0.17 0.22 0.11 0.03 0.01 0.00 0.00 0.01 0.01 0.01
0.00 0.00 0.00 0.00 0.00 0.00 0.00 0.00 0.00 0.10 0.11 0.08 0.27 0.29 0.21 0.25 0.22 0.22 0.33 0.35 0.35 0.56 0.67 0.49 0.38 0.39 0.31 0.22 0.24 0.23 0.31 0.32 0.24 0.21 0.16 0.16 0.10 0.10 0.05 0.02 0.04 0.03 0.02
0.00 0.00 0.00 0.00 0.00 0.00 0.00 0.00 0.00 0.05 0.09 0.03 0.07 0.04 0.12 0.09 0.11 0.18 0.21 0.22 0.30 0.34 0.42 0.39 0.38 0.28 0.27 0.32 0.28 0.27 0.27 0.33 0.34 0.25 0.29 0.24 0.19 0.14 0.14 0.08 0.06 0.07 0.06
0.00 0.00 0.00 0.00 0.00 0.00 0.01 0.01 0.00 0.01 0.05 0.03 0.02 0.02 0.08 0.08 0.06 0.10 0.15 0.17 0.19 0.18 0.24 0.25 0.24 0.24 0.21 0.21 0.29 0.33 0.36 0.35 0.38 0.35 0.34 0.36 0.35 0.28 0.23 0.19 0.13 0.12 0.09
0.00 0.00 0.00 0.00 0.00 0.00 0.00 0.00 0.02 0.02 0.02 0.01 0.00 0.00 0.02 0.09 0.07 0.10 0.15 0.15 0.11 0.08 0.10 0.21 0.23 0.21 0.24 0.28 0.27 0.25 0.23 0.33 0.40 0.42 0.33 0.31 0.33 0.34 0.35 0.37 0.33 0.27 0.15
0.00 0.00 0.00 0.00 0.00 0.00 0.00 0.00 0.00 0.00 0.00 0.00 0.00 0.00 0.00 0.04 0.05 0.06 0.07 0.08 0.11 0.11 0.13 0.16 0.20 0.24 0.23 0.21 0.21 0.21 0.20 0.22 0.28 0.35 0.40 0.34 0.30 0.32 0.34 0.39 0.49 0.41 0.27
0.00 0.00 0.00 0.00 0.00 0.00 0.00 0.00 0.00 0.00 0.00 0.00 0.00 0.00 0.00 0.05 0.05 0.04 0.04 0.06 0.06 0.07 0.09 0.12 0.15 0.17 0.21 0.23 0.26 0.23 0.20 0.21 0.20 0.22 0.30 0.32 0.24 0.22 0.27 0.33 0.51 0.78 0.86
0.00 0.00 0.00 0.00 0.00 0.00 0.00 0.00 0.00 0.00 0.00 0.02 0.02 0.01 0.04 0.04 0.04 0.03 0.03 0.05 0.06 0.06 0.07 0.07 0.08 0.08 0.10 0.14 0.21 0.23 0.26 0.31 0.32 0.35 0.38 0.39 0.38 0.40 0.45 0.52 0.64 0.88 1.10
0.00 0.00 0.00 0.00 0.00 0.00 0.00 0.00 0.00 0.00 0.00 0.01 0.00 0.01 0.03 0.03 0.04 0.04 0.04 0.04 0.04 0.05 0.05 0.05 0.04 0.04 0.03 0.03 0.04 0.05 0.06 0.09 0.09 0.11 0.14 0.17 0.21 0.28 0.32 0.33 0.37 0.47 0.60
0.00 0.00 0.00 0.00 0.00 0.00 0.00 0.00 0.00 0.00 0.01 0.01 0.00 0.01 0.02 0.04 0.05 0.05 0.05 0.06 0.05 0.05 0.04 0.05 0.03 0.02 0.02 0.03 0.02 0.04 0.04 0.05 0.07 0.07 0.08 0.09 0.08 0.10 0.10 0.16 0.23 0.33 0.41
0.00 0.00 0.00 0.00 0.00 0.00 0.02 0.04 0.04 0.02 0.01 0.00 0.01 0.03 0.05 0.06 0.07 0.06 0.06 0.06 0.05 0.04 0.02 0.03 0.03 0.02 0.02 0.03 0.02 0.03 0.03 0.04 0.05 0.07 0.08 0.11 0.14 0.19 0.24 0.29 0.32 0.36 0.35
0.01 0.00 0.00 0.00 0.00 0.01 0.05 0.05 0.04 0.02 0.05 0.05 0.05 0.06 0.06 0.07 0.08 0.08 0.06 0.07 0.07 0.06 0.05 0.04 0.04 0.04 0.05 0.07 0.08 0.09 0.10 0.14 0.16 0.19 0.21 0.25 0.31 0.35 0.37 0.38 0.36 0.32 0.28
0.01 0.00 0.01 0.01 0.01 0.01 0.03 0.04 0.07 0.08 0.08 0.11 0.11 0.09 0.07 0.05 0.05 0.06 0.05 0.05 0.05 0.06 0.06 0.06 0.09 0.11 0.13 0.18 0.21 0.25 0.33 0.36 0.36 0.36 0.37 0.45 0.52 0.50 0.45 0.42 0.38 0.29 0.23
0.02 0.01 0.01 0.00 0.00 0.00 0.01 0.02 0.06 0.10 0.16 0.15 0.10 0.07 0.06 0.06 0.07 0.06 0.06 0.08 0.09 0.11 0.15 0.17 0.13 0.13 0.14 0.31 0.25 0.20 0.23 0.28 0.33 0.41 0.43 0.49 0.50 0.36 0.31 0.26 0.19 0.17 0.30
0.01 0.00 0.00 0.00 0.00 0.00 0.01 0.01 0.03 0.06 0.07 0.06 0.04 0.04 0.07 0.10 0.09 0.07 0.05 0.09 0.23 0.40 0.36 0.38 0.47 0.61 0.68 0.74 0.55 0.42 0.30 0.31 0.31 0.30 0.26 0.20 0.17 0.16 0.11 0.09 0.13 0.30 0.36
0.00 0.00 0.00 0.00 0.00 0.00 0.00 0.01 0.02 0.07 0.16 0.23 0.24 0.20 0.38 0.53 0.37 0.44 0.56 0.63 0.43 0.44 0.56 0.50 0.64 0.70 0.83 0.75 0.58 0.56 0.54 0.47 0.40 0.30 0.20 0.15 0.10 0.06 0.04 0.10 0.34 0.20 0.05
0.01 0.00 0.00 0.00 0.00 0.00 0.00 0.01 0.02 0.04 0.15 0.33 0.58 0.61 0.65 0.67 0.73 1.09 1.03 1.18 1.08 0.85 0.71 0.58 0.54 0.45 0.36 0.26 0.20 0.15 0.14 0.12 0.09 0.05 0.02 0.04 0.03 0.02 0.16 0.27 0.20 0.03 0.00
0.01 0.01 0.00 0.00 0.00 0.00 0.03 0.05 0.04 0.08 0.18 0.26 0.22 0.62 0.78 0.63 0.58 0.63 0.64 0.72 0.50 0.52 0.60 0.53 0.35 0.28 0.20 0.14 0.09 0.08 0.06 0.03 0.01 0.01 0.02 0.02 0.02 0.11 0.36 0.13 0.03 0.02 0.01
0.01 0.01 0.02 0.02 0.04 0.07 0.13 0.25 0.23 0.41 0.54 0.84 0.62 0.66 0.80 0.64 0.47 0.54 0.36 0.35 0.38 0.30 0.21 0.14 0.10 0.05 0.03 0.01 0.00 0.01 0.01 0.01 0.04 0.05 0.01 0.00 0.11 0.29 0.11 0.03 0.01 0.02 0.06
0.23 0.25 0.18 0.14 0.18 0.22 0.37 0.72 0.66 0.65 0.70 0.64 0.69 0.44 0.40 0.30 0.22 0.15 0.14 0.10 0.05 0.03 0.02 0.01 0.00 0.00 0.00 0.00 0.00 0.00 0.01 0.04 0.05 0.03 0.02 0.11 0.22 0.04 0.00 0.00 0.02 0.04 0.03
0.28 0.54 0.49 0.45 0.55 0.41 0.43 0.59 0.46 0.28 0.14 0.17 0.12 0.05 0.02 0.02 0.01 0.01 0.00 0.00 0.00 0.00 0.00 0.00 0.00 0.00 0.00 0.00 0.00 0.00 0.03 0.05 0.05 0.04 0.16 0.14 0.01 0.00 0.00 0.00 0.01 0.01 0.00
0.01 0.02 0.02 0.06 0.14 0.14 0.14 0.18 0.12 0.06 0.02 0.01 0.00 0.00 0.00 0.00 0.00 0.00 0.00 0.00 0.00 0.00 0.00 0.00 0.00 0.00 0.00 0.00 0.00 0.01 0.03 0.03 0.08 0.13 0.10 0.01 0.00 0.00 0.00 0.00 0.00 0.00 0.01
0.04 0.03 0.04 0.03 0.01 0.00 0.00 0.01 0.01 0.01 0.02 0.01 0.01 0.01 0.00 0.00 0.00 0.00 0.00 0.00 0.00 0.00 0.00 0.00 0.00 0.00 0.00 0.00 0.02 0.03 0.03 0.06 0.10 0.04 0.00 0.00 0.00 0.00 0.00 0.00 0.00 0.00 0.01
0.01 0.01 0.01 0.02 0.03 0.04 0.06 0.06 0.04 0.02 0.02 0.02 0.02 0.03 0.02 0.01 0.01 0.01 0.02 0.02 0.01 0.00 0.00 0.00 0.00 0.00 0.01 0.01 0.01 0.02 0.07 0.09 0.03 0.00 0.00 0.01 0.01 0.02 0.01 0.01 0.02 0.01 0.02